Back to catalog

USA 153

AliveMilitaryGEO
NORAD 26575·PAYLOAD·🇺🇸 United States

Launched Oct 20, 2000 from Cape Canaveral Space Force Station

Loading…

TLE

FreshSource: Space-Track

Epoch: Sep 14, 2026, 05:53 UTC

1 26575U 00065A   26257.24535084 -.00000331  00000-0  00000-0 0  9997
2 26575  11.7771  34.6585 0001558 132.8727  48.4762  1.00269683 33823

Track USA 153 in real time with AllMySat

Download on the App Store